KA2K Weather Reports


Display with metric or nautical units.
time (UTC)temp
F
wind
direction
speed
MPH
gust
MPH
rain 1hr
in
rain 24hr
in
rain mn
in
humidity
%
barometer
mb
20260505035003 57 213 0.0 2.0 0.00 0.00 0.00 70 1011.0
20260505034503 57 188 0.0 2.0 0.00 0.00 0.00 70 1011.0
20260505034003 57 198 1.0 3.0 0.00 0.00 0.00 69 1010.9
20260505033506 57 109 0.0 4.0 0.00 0.00 0.00 69 1010.8
20260505033008 58 223 0.0 4.0 0.00 0.00 0.00 69 1010.9
20260505032503 58 169 0.0 2.0 0.00 0.00 0.00 68 1011.0
20260505032003 58 197 0.0 2.0 0.00 0.00 0.00 68 1011.0
20260505031511 58 236 0.0 5.0 0.00 0.00 0.00 67 1011.0
20260505031004 58 251 0.0 5.0 0.00 0.00 0.00 68 1011.1
20260505030506 58 156 0.0 5.0 0.00 0.00 0.00 67 1011.1
20260505030019 58 177 0.0 4.0 0.00 0.00 0.00 67 1011.1
20260505025512 58 166 1.0 3.0 0.00 0.00 0.00 67 1011.1
20260505025007 58 153 0.0 3.0 0.00 0.00 0.00 67 1011.2
20260505024523 58 187 1.0 3.0 0.00 0.00 0.00 67 1011.3
20260505024004 59 174 1.0 3.0 0.00 0.00 0.00 66 1011.3
20260505023503 59 167 0.0 3.0 0.00 0.00 0.00 66 1011.3
20260505023017 59 187 0.0 3.0 0.00 0.00 0.00 66 1011.3
20260505022503 59 171 1.0 4.0 0.00 0.00 0.00 66 1011.3
20260505022004 59 198 0.0 4.0 0.00 0.00 0.00 65 1011.3
20260505021515 59 213 1.0 2.0 0.00 0.00 0.00 65 1011.3
20260505021006 59 196 1.0 3.0 0.00 0.00 0.00 65 1011.3
20260505020503 59 142 0.0 5.0 0.00 0.00 0.00 65 1011.3
20260505020016 60 118 0.0 5.0 0.00 0.00 0.00 65 1011.4
20260505015508 60 203 0.0 3.0 0.00 0.00 0.00 65 1011.3
20260505015010 60 174 0.0 2.0 0.00 0.00 0.00 64 1011.3
20260505014524 60 172 0.0 6.0 0.00 0.00 0.00 63 1011.3
20260505014010 60 167 1.0 6.0 0.00 0.00 0.00 63 1011.3
20260505013510 60 117 0.0 2.0 0.00 0.00 0.00 63 1011.3
20260505013004 60 227 0.0 3.0 0.00 0.00 0.00 63 1011.2
20260505012504 60 215 1.0 3.0 0.00 0.00 0.00 62 1011.2
20260505012004 61 239 0.0 2.0 0.00 0.00 0.00 61 1011.1
20260505011511 61 173 0.0 5.0 0.00 0.00 0.00 61 1011.0
20260505011005 61 9 0.0 6.0 0.00 0.00 0.00 60 1011.0
20260505010510 62 192 1.0 6.0 0.00 0.00 0.00 60 1011.0
20260505010018 62 161 0.0 3.0 0.00 0.00 0.00 59 1010.8
20260505005507 62 42 0.0 4.0 0.00 0.00 0.00 58 1010.8
20260505005006 62 207 1.0 4.0 0.00 0.00 0.00 57 1010.7
20260505004523 62 157 1.0 3.0 0.00 0.00 0.00 56 1010.7
20260505004008 63 211 0.0 5.0 0.00 0.00 0.00 55 1010.7
20260505003516 63 189 1.0 5.0 0.00 0.00 0.00 54 1010.7
20260505003024 63 25 1.0 5.0 0.00 0.00 0.00 52 1010.6
20260505002510 63 223 1.0 4.0 0.00 0.00 0.00 52 1010.6
20260505002004 64 154 1.0 4.0 0.00 0.00 0.00 51 1010.5
20260505001506 64 180 0.0 2.0 0.00 0.00 0.00 49 1010.4
20260505001004 64 189 0.0 3.0 0.00 0.00 0.00 46 1010.4
20260505000504 65 189 0.0 3.0 0.00 0.00 0.00 46 1010.3
20260505000021 65 178 0.0 2.0 0.00 0.00 0.00 45 1010.2
20260504235504 66 130 0.0 2.0 0.00 0.00 0.00 42 1010.1
20260504235004 66 232 0.0 2.0 0.00 0.00 0.00 41 1010.1
20260504234518 67 232 0.0 2.0 0.00 0.00 0.00 40 1010.1
20260504234006 68 232 0.0 2.0 0.00 0.00 0.00 39 1010.0
20260504233506 68 256 0.0 3.0 0.00 0.00 0.00 39 1010.0
20260504233024 68 206 0.0 3.0 0.00 0.00 0.00 39 1010.0
20260504232511 69 200 1.0 3.0 0.00 0.00 0.00 38 1010.0
20260504232010 69 213 1.0 3.0 0.00 0.00 0.00 38 1009.9
20260504231526 69 222 1.0 3.0 0.00 0.00 0.00 37 1010.0
20260504231009 70 240 0.0 4.0 0.00 0.00 0.00 37 1010.0
20260504230504 70 192 1.0 4.0 0.00 0.00 0.00 35 1009.9
20260504230010 70 284 1.0 5.0 0.00 0.00 0.00 35 1009.9
20260504225506 71 277 2.0 7.0 0.00 0.00 0.00 35 1009.9
20260504225009 71 281 2.0 7.0 0.00 0.00 0.00 34 1009.8
20260504224519 71 229 1.0 13.0 0.00 0.00 0.00 34 1009.8
20260504224006 71 163 2.0 13.0 0.00 0.00 0.00 34 1009.7
20260504223507 71 323 1.0 12.0 0.00 0.00 0.00 33 1009.8
20260504223022 72 289 1.0 13.0 0.00 0.00 0.00 33 1009.7
20260504222506 72 303 2.0 13.0 0.00 0.00 0.00 33 1009.8
20260504222014 72 295 3.0 9.0 0.00 0.00 0.00 32 1009.8
20260504221524 72 231 2.0 9.0 0.00 0.00 0.00 32 1009.8
20260504221010 72 220 2.0 9.0 0.00 0.00 0.00 33 1009.8
20260504220512 72 152 2.0 8.0 0.00 0.00 0.00 33 1009.9
20260504220039 72 288 3.0 8.0 0.00 0.00 0.00 32 1009.9
20260504215506 72 213 3.0 11.0 0.00 0.00 0.00 32 1009.8
20260504215003 72 9 2.0 11.0 0.00 0.00 0.00 32 1009.9
20260504214520 73 244 3.0 8.0 0.00 0.00 0.00 32 1009.8
20260504214010 73 316 3.0 9.0 0.00 0.00 0.00 31 1009.8
20260504213506 73 310 4.0 13.0 0.00 0.00 0.00 32 1009.7
20260504213022 73 270 1.0 13.0 0.00 0.00 0.00 32 1009.7
20260504212509 73 286 2.0 11.0 0.00 0.00 0.00 31 1009.8
20260504212010 73 263 3.0 11.0 0.00 0.00 0.00 31 1009.8
20260504211530 74 331 2.0 6.0 0.00 0.00 0.00 32 1009.7
20260504211007 74 314 2.0 6.0 0.00 0.00 0.00 32 1009.7
20260504210510 74 187 1.0 7.0 0.00 0.00 0.00 31 1009.8
20260504210026 74 154 2.0 7.0 0.00 0.00 0.00 32 1009.8
20260504205514 74 224 1.0 8.0 0.00 0.00 0.00 31 1009.7
20260504205011 74 325 2.0 8.0 0.00 0.00 0.00 30 1009.7
20260504204518 74 288 2.0 6.0 0.00 0.00 0.00 29 1009.7
20260504204006 74 267 2.0 9.0 0.00 0.00 0.00 30 1009.8
20260504203508 74 249 1.0 9.0 0.00 0.00 0.00 31 1009.7
20260504203019 74 149 2.0 7.0 0.00 0.00 0.00 32 1009.8
20260504202505 74 242 3.0 9.0 0.00 0.00 0.00 30 1009.8
20260504202008 74 130 4.0 12.0 0.00 0.00 0.00 31 1009.7
20260504201522 75 252 4.0 12.0 0.00 0.00 0.00 29 1009.8
20260504201008 75 245 1.0 9.0 0.00 0.00 0.00 30 1009.8
20260504200512 74 218 2.0 10.0 0.00 0.00 0.00 30 1009.8
20260504200028 74 241 2.0 10.0 0.00 0.00 0.00 31 1010.0
20260504195510 75 286 3.0 10.0 0.00 0.00 0.00 32 1010.0
20260504195012 74 238 2.0 6.0 0.00 0.00 0.00 29 1010.0
20260504194528 74 296 0.0 5.0 0.00 0.00 0.00 32 1010.1
20260504194009 74 325 2.0 5.0 0.00 0.00 0.00 29 1010.1
20260504193506 73 248 2.0 8.0 0.00 0.00 0.00 30 1010.2
20260504193022 73 281 2.0 8.0 0.00 0.00 0.00 30 1010.3
20260504192506 74 134 3.0 7.0 0.00 0.00 0.00 32 1010.4
20260504192010 74 319 3.0 6.0 0.00 0.00 0.00 29 1010.5
20260504191523 74 302 3.0 6.0 0.00 0.00 0.00 30 1010.5
20260504191009 74 288 2.0 6.0 0.00 0.00 0.00 29 1010.6
20260504190507 74 215 3.0 12.0 0.00 0.00 0.00 31 1010.8
20260504190024 74 281 2.0 12.0 0.00 0.00 0.00 30 1010.8
20260504185512 73 11 4.0 11.0 0.00 0.00 0.00 31 1010.9
20260504185006 73 327 3.0 9.0 0.00 0.00 0.00 32 1011.0
20260504184508 73 255 3.0 9.0 0.00 0.00 0.00 31 1011.1
20260504184004 73 325 3.0 6.0 0.00 0.00 0.00 31 1011.2
20260504183504 73 331 3.0 8.0 0.00 0.00 0.00 29 1011.3
20260504183016 73 305 4.0 9.0 0.00 0.00 0.00 30 1011.3
20260504182503 73 360 4.0 9.0 0.00 0.00 0.00 30 1011.4
20260504182009 73 200 3.0 8.0 0.00 0.00 0.00 30 1011.4
20260504181527 73 342 1.0 9.0 0.00 0.00 0.00 33 1011.6
20260504181011 72 329 3.0 9.0 0.00 0.00 0.00 31 1011.7
20260504180511 72 12 1.0 7.0 0.00 0.00 0.00 31 1011.7
20260504180024 72 294 2.0 7.0 0.00 0.00 0.00 30 1011.9
20260504175506 71 300 2.0 11.0 0.00 0.00 0.00 30 1011.8
20260504175011 72 17 3.0 11.0 0.00 0.00 0.00 31 1011.9
20260504174508 72 16 3.0 9.0 0.00 0.00 0.00 30 1012.0
20260504174003 72 322 3.0 9.0 0.00 0.00 0.00 31 1012.0
20260504173504 72 14 2.0 9.0 0.00 0.00 0.00 31 1012.1
20260504173012 72 307 3.0 7.0 0.00 0.00 0.00 32 1012.0
20260504172504 72 205 2.0 8.0 0.00 0.00 0.00 32 1012.0
20260504172005 72 320 3.0 8.0 0.00 0.00 0.00 33 1012.0
20260504171517 71 309 3.0 8.0 0.00 0.00 0.00 32 1012.1
20260504171006 72 329 3.0 8.0 0.00 0.00 0.00 31 1012.2
20260504170510 71 298 2.0 8.0 0.00 0.00 0.00 33 1012.2
20260504151010 68 138 2.0 5.0 0.00 0.00 0.00 42 1013.6
20260504150514 67 241 1.0 12.0 0.00 0.00 0.00 43 1013.5
20260504141010 64 152 2.0 9.0 0.00 0.00 0.00 48 1013.8
20260504140510 63 300 2.0 9.0 0.00 0.00 0.00 51 1013.7
20260504130513 60 144 2.0 6.0 0.00 0.00 0.00 58 1014.4
20260504110502 41 133 0.0 0.0 0.00 0.00 0.00 82 1015.1
20260504100505 39 167 0.0 0.0 0.00 0.00 0.00 81 1015.1
20260504082003 43 202 0.0 0.0 0.00 0.00 0.00 72 1015.0
20260504081524 43 244 0.0 0.0 0.00 0.00 0.00 72 1015.0
20260504081005 43 198 0.0 1.0 0.00 0.00 0.00 72 1015.0
20260504080506 43 198 0.0 1.0 0.00 0.00 0.00 73 1015.0
20260504050507 45 250 0.0 2.0 0.00 0.00 0.00 62 1014.4
20260504050016 45 271 0.0 2.0 0.00 0.00 0.00 63 1014.4
20260504045507 45 271 0.0 2.0 0.00 0.00 0.00 63 1014.4
20260504045007 45 253 0.0 2.0 0.00 0.00 0.00 63 1014.3
20260504044526 45 250 0.0 2.0 0.00 0.00 0.00 64 1014.3
20260504044006 45 207 0.0 0.0 0.00 0.00 0.00 65 1014.3
20260504043507 45 205 0.0 0.0 0.00 0.00 0.00 65 1014.3
20260504043024 45 205 0.0 0.0 0.00 0.00 0.00 62 1014.2
20260504042507 45 201 0.0 0.0 0.00 0.00 0.00 62 1014.1
20260504042004 45 191 0.0 0.0 0.00 0.00 0.00 61 1014.1
20260504041511 45 200 0.0 0.0 0.00 0.00 0.00 62 1014.0
20260504041005 46 200 0.0 0.0 0.00 0.00 0.00 61 1013.9
20260504040504 46 200 0.0 0.0 0.00 0.00 0.00 60 1013.9
20260504040014 46 200 0.0 0.0 0.00 0.00 0.00 60 1013.9
20260504035512 46 230 0.0 0.0 0.00 0.00 0.00 59 1013.9